TimeEDT,TemperatureF,Dew PointF,Humidity,Sea Level PressureIn,VisibilityMPH,Wind Direction,Wind SpeedMPH,Gust SpeedMPH,PrecipitationIn,Events,Conditions,WindDirDegrees,DateUTC
12:54 AM,66.9,59.0,76,29.96,10.0,SW,4.6,-,N/A,,Clear,230,2013-05-16 04:54:00
1:54 AM,68.0,60.1,76,29.95,10.0,SW,6.9,-,N/A,,Clear,230,2013-05-16 05:54:00
2:54 AM,68.0,60.1,76,29.94,10.0,SW,6.9,-,N/A,,Clear,230,2013-05-16 06:54:00
3:54 AM,66.9,60.1,79,29.93,10.0,SW,6.9,-,N/A,,Clear,220,2013-05-16 07:54:00
4:54 AM,66.0,59.0,78,29.93,10.0,SW,6.9,-,N/A,,Clear,220,2013-05-16 08:54:00
5:54 AM,64.9,59.0,81,29.94,10.0,SW,9.2,-,N/A,,Clear,220,2013-05-16 09:54:00
6:54 AM,66.0,59.0,78,29.95,10.0,SW,6.9,-,N/A,,Clear,220,2013-05-16 10:54:00
7:54 AM,70.0,60.1,71,29.97,10.0,SW,9.2,-,N/A,,Clear,220,2013-05-16 11:54:00
8:54 AM,73.9,61.0,64,29.98,10.0,SW,10.4,-,N/A,,Clear,230,2013-05-16 12:54:00
9:54 AM,77.0,63.0,62,29.98,10.0,WSW,6.9,-,N/A,,Clear,250,2013-05-16 13:54:00
10:54 AM,82.0,63.0,52,29.99,10.0,West,5.8,-,N/A,,Clear,260,2013-05-16 14:54:00
11:54 AM,82.9,62.1,49,29.98,10.0,WNW,5.8,-,N/A,,Clear,290,2013-05-16 15:54:00
12:54 PM,87.1,64.0,46,29.97,10.0,West,8.1,-,N/A,,Clear,270,2013-05-16 16:54:00
1:54 PM,88.0,57.9,36,29.96,10.0,West,6.9,-,N/A,,Clear,280,2013-05-16 17:54:00
3:54 PM,90.0,55.9,31,29.93,10.0,West,15.0,20.7,N/A,,Clear,260,2013-05-16 19:54:00
4:54 PM,90.0,57.9,34,29.91,10.0,WSW,9.2,-,N/A,,Clear,240,2013-05-16 20:54:00
6:54 PM,84.0,59.0,43,29.93,10.0,West,3.5,-,N/A,,Clear,260,2013-05-16 22:54:00
7:54 PM,82.0,57.9,44,29.94,10.0,WSW,3.5,-,N/A,,Clear,250,2013-05-16 23:54:00
8:54 PM,78.1,60.1,54,29.96,10.0,SW,3.5,-,N/A,,Clear,220,2013-05-17 00:54:00
9:54 PM,75.9,60.1,58,29.99,10.0,SW,4.6,-,N/A,,Clear,230,2013-05-17 01:54:00
10:54 PM,75.0,59.0,57,29.99,10.0,SW,6.9,-,N/A,,Clear,230,2013-05-17 02:54:00
11:54 PM,73.0,61.0,66,29.99,10.0,SW,8.1,-,N/A,,Clear,230,2013-05-17 03:54:00